Погода в Лохвице

Украина / Полтавская область     50°21′27″N   33°15′56″E
темп.,
°C
ветер,
м/с
пор.,
м/с
влажн.,
%
обл.,
%
осадки,
мм/ч
давл.,
гПа
погр.,
м
9 марта, вт
вт923:00−4зсз5987100 0.3 1013378
02:00−6ссз5109072 0.3 1015371
05:00−8сз59878 0.0 1016283
08:00−8сз478711 0.0 1018304
11:00−5сз467883 0.0 1020744
14:00−5сз567591 0.1 1021900
17:00−6ссз4781100 0.0 1022549
20:00−8ссз368257 0.0 1024241
10 марта, ср
ср1023:00−9сз23835 0.0 1025107
02:00−10ссз23863 0.0 1027103
05:00−11ссз238810 0.0 102782
08:00−10с118641 0.0 1028130
11:00−6ссв1174100 0.0 1028318
14:00−4сз116272 0.0 1028563
17:00−5ссв22731 0.0 1026222
20:00−7св23730 0.0 1027111
11 марта, чт
чт1123:00−7св22720 0.0 102888
02:00−8св23720 0.0 102882
05:00−8св347132 0.0 1029106
08:00−7всв237343 0.0 1030194
11:00−3вюв235543 0.0 1030712
14:00−1всв124868 0.0 10301105
17:00−3св346538 0.0 1029408
20:00−4вюв466720 0.0 1030338
12 марта, пт
пт1223:00−5юв47650 0.0 1031339
02:00−6ююв58610 0.0 1030336
05:00−6ююв58540 0.0 1030325
08:00−6ююв6104941 0.0 1030482
11:00−3ююв71045100 0.0 1029836
14:00−2ююв7104397 0.0 10281002
17:00−2ююв71243100 0.0 1026764
20:00−3ю71344100 0.0 1026881
13 марта, сб
сб1323:00−3ю81455100 0.0 1026942
02:00−4ю91490100 0.2 1025767
05:00−4ю71293100 1.1 1024635
08:00−3ю71192100 1.6 1024569
11:000ю71187100 0.3 1024609
14:00+1ююз7109898 0.3 1023634
17:00+1ююз71197100 0.1 1022494
20:000ю71392100 0.3 1022662